#timestamp,LO_Frequency,Hit,StdDev 
1540706415.2,286046999.3,N
1540706435.1,286047000.1,N
1540706436.0,286047000.1,N
1540706455.8,286047000.5,N
1540706475.6,286047001.0,N
1540706495.5,286047002.3,N
1540706515.3,286047001.3,N
1540706535.1,286047003.8,N
1540706555.9,286047003.1,N
1540706575.7,286047003.0,N
1540706595.6,286047003.5,N
1540706615.4,286047004.1,N
1540706635.2,286047002.9,N
1540706655.1,286047004.7,N
1540706656.0,286047004.7,N
1540706675.8,286047007.6,Y
1540706695.6,286047004.2,P
1540706715.5,286047003.4,N
1540706735.3,286047003.1,P
1540706755.2,286047003.4,Y
1540706775.9,286047002.4,P
1540706795.7,286047001.6,P
1540706815.6,286047001.3,N
1540706835.4,286047002.7,Y
1540706855.3,286046998.7,P
1540706875.1,286046998.9,N
1540706876.0,286046998.9,N
1540706895.8,286046996.6,N
1540706915.7,286046997.1,N
1540706935.5,286046998.3,N
1540706955.3,286046998.3,N
1540706975.2,286047002.8,N
1540706995.0,286046999.9,N
1540706995.9,286046999.9,N
1540707015.8,286047000.1,N
1540707035.6,286047002.4,N
1540707055.4,286047001.7,N
1540707075.3,286047002.8,N
1540707095.1,286047001.1,N
1540707115.8,286047000.7,N
1540707135.7,286047000.1,N
1540707155.5,286047001.9,N
1540707175.4,286047001.8,N
1540707195.2,286047003.4,N
1540707215.0,286047003.1,N
1540707215.9,286047003.1,N
1540707235.8,286047002.9,N
1540707255.6,286047003.1,N
1540707275.4,286047004.7,N
1540707295.3,286047003.1,N
1540707315.1,286047003.4,N
1540707335.9,286047004.3,N
1540707355.7,286047004.4,N
1540707375.5,286047004.1,N
1540707395.4,286047004.4,N
1540707415.2,286047002.3,N
1540707435.0,286047001.3,N
1540707435.9,286047001.3,N
1540707455.8,286047003.2,N
1540707475.6,286047004.3,N
1540707495.5,286047004.2,N
1540707515.3,286047003.0,N
1540707535.1,286047006.0,Y
1540707555.9,286047000.8,P
1540707575.7,286046998.2,N
1540707595.5,286047000.9,N
1540707615.4,286047001.0,N
1540707635.2,286047001.2,N
1540707655.1,286047000.6,N
1540707656.0,286047000.6,N
1540707675.8,286046999.0,N
1540707695.6,286046999.1,N
1540707715.5,286046998.8,N
1540707735.3,286046999.1,N
1540707755.1,286046999.4,N
1540707775.9,286046996.5,N
1540707795.7,286046997.7,N
1540707815.6,286046995.4,Y
1540707835.4,286046997.5,P
1540707855.2,286046999.2,N
1540707875.1,286046996.9,P
1540707876.0,286046996.9,N
1540707895.8,286046997.1,N
1540707915.7,286046996.5,Y
1540707935.5,286046998.5,P
1540707955.3,286047001.2,P
1540707975.2,286047001.2,N
1540707995.0,286046998.4,N
1540707995.9,286046998.4,N
1540708015.7,286046999.6,N
1540708035.6,286046997.8,N
1540708055.4,286046995.0,Y
1540708075.3,286046997.1,P
1540708095.1,286046996.7,P
1540708096.0,286046996.7,P
1540708115.8,286046997.2,N
1540708135.7,286046995.5,Y
1540708155.5,286047000.7,P
1540708175.3,286046999.9,N
1540708195.2,286047000.4,N
1540708215.0,286047002.8,N
1540708215.9,286047002.8,N
1540708235.8,286047001.8,N
1540708255.6,286047004.4,N
1540708275.4,286047003.5,N
1540708295.3,286047003.9,N
1540708315.1,286047003.1,N
1540708335.9,286047003.6,N
1540708355.7,286047004.4,N
1540708375.5,286047004.0,N
1540708395.4,286047003.8,N
1540708415.2,286047003.8,N
1540708435.0,286047004.3,N
1540708435.9,286047004.3,N
1540708455.8,286047002.1,N
1540708475.6,286047001.8,N
1540708495.5,286047003.7,N
1540708515.3,286047003.5,N
1540708535.1,286047004.1,N
1540708555.9,286047001.3,N
1540708575.7,286047003.8,N
1540708595.5,286047003.5,N
1540708615.4,286047001.6,N
1540708635.2,286047002.6,N
1540708655.1,286047001.5,N
1540708656.0,286047001.5,N
1540708675.8,286047001.6,N
1540708695.6,286047002.0,N
1540708715.5,286047000.0,N
1540708735.3,286046999.7,N
1540708755.1,286047001.8,N
1540708775.9,286047001.8,N
1540708795.7,286047002.5,N
1540708815.6,286047001.7,N
1540708835.4,286047000.1,N
1540708855.2,286047000.9,N
1540708875.1,286046998.8,N
1540708876.0,286046998.8,N
1540708895.8,286046998.3,N
1540708915.6,286046996.9,N
1540708935.5,286046998.9,N
1540708955.3,286047000.8,N
1540708975.2,286046999.9,N
1540708995.9,286046999.9,N
1540709015.7,286047002.7,N
1540709035.6,286047001.5,N
1540709055.4,286047003.9,N
1540709075.2,286047003.3,N
1540709095.1,286047005.9,Y
1540709096.0,286047005.9,P
1540709115.8,286047004.0,N
1540709135.7,286047004.0,N
1540709155.5,286047004.1,N
1540709175.3,286047001.7,N
1540709195.2,286047004.3,N
1540709215.0,286047003.4,N
1540709215.9,286047003.4,N
1540709235.8,286047004.8,Y
1540709255.6,286047002.0,P
1540709275.4,286047003.9,P
1540709295.3,286047005.2,P
1540709315.1,286047005.0,Y
1540709335.9,286047001.7,P
1540709355.7,286047003.5,P
1540709375.5,286047003.0,P
1540709395.4,286047005.9,Y
1540709415.2,286047002.3,P
1540709435.1,286047002.5,P
1540709436.0,286047002.5,P
1540709455.8,286047001.7,Y
1540709475.6,286046998.9,P
1540709495.5,286046998.8,N
1540709515.3,286046999.1,N
1540709535.1,286046998.9,N
1540709555.9,286046998.8,N
1540709575.7,286046997.0,N
1540709595.6,286046996.5,N
1540709615.4,286046999.2,N
1540709635.2,286046996.8,N
1540709655.1,286046999.6,N
1540709656.0,286046999.6,N
1540709675.8,286046996.8,N
1540709695.7,286046999.1,N
1540709715.5,286047000.4,N
1540709735.3,286047000.0,N
1540709755.2,286047002.8,N
1540709775.9,286047002.1,N
1540709795.7,286047003.7,N
1540709815.6,286047003.8,N
1540709835.4,286047003.4,N
1540709855.2,286047003.6,N
1540709875.1,286047004.2,N
1540709876.0,286047004.2,N
1540709895.8,286047003.4,N
1540709915.7,286047007.2,N
1540709935.5,286047004.9,N
1540709955.3,286047006.9,N
1540709975.2,286047008.0,N
1540709995.0,286047008.4,N
1540709995.9,286047008.4,N
